Regional Weather Roundup
Issued by NWS

Home | Current Version | Previous Version | Text Only | Print | Product List | Glossary On
Versions: 1 2 3 4 5 6 7 8 9 10 11 12 13 14 15 16 17 18 19 20 21 22 23 24 25 26 27 28 29 30 31 32 33 34 35 36 37 38 39 40 41 42 43 44 45 46 47 48 49 50
000
ASUS43 KLSX 240207
RWRMO

WEATHER SUMMARY FOR MISSOURI
NATIONAL WEATHER SERVICE SPRINGFIELD MO
900 PM CDT WED APR 23 2014

NOTE: "FAIR" INDICATES FEW OR NO CLOUDS BELOW 12,000 FEET WITH NO
       SIGNIFICANT WEATHER AND/OR OBSTRUCTIONS TO VISIBILITY.
       CURRENT SKY AND/OR WEATHER CONDITIONS ARE NOT AVAILABLE FOR
       CHILLICOTHE AND FARMINGTON.

MOZ001>031-035>038-043-044-053-054-240300-
...NORTHERN AND WESTERN MISSOURI...

CITY           SKY/WX    TMP DP  RH WIND       PRES   REMARKS
KANSAS CTY INT PTCLDY    69  41  36 SE22G32   29.66F
KANSAS C DTWN  CLEAR     72  42  34 SE16G22   29.67F
LEE`S SUMMIT   PTCLDY    70  42  36 SE10G22   29.71F
ST JOSEPH      CLEAR     67  41  38 SE20      29.65F
CHILLICOTHE      N/A     61  41  47 E15G22    29.78S
KIRKSVILLE     MOCLDY    55  35  47 SE14      29.85S

$$
MOZ066>068-077>081-088>096-101>105-240300-
...SOUTHWEST MISSOURI...

CITY           SKY/WX    TMP DP  RH WIND       PRES   REMARKS
SPRINGFIELD    PTCLDY    69  41  36 SE17      29.82S
JOPLIN         PTCLDY    72  44  36 SE8       29.78R

$$
MOZ032>034-039>042-045>050-055>058-069>072-240300-
...CENTRAL MISSOURI...

CITY           SKY/WX    TMP DP  RH WIND       PRES   REMARKS
COLUMBIA       PTCLDY    59  38  45 E15       29.87F
JEFFERSON CITY CLEAR     61  39  44 E13       29.87S
ROLLA          CLEAR     56  40  55 E9        29.88F
SEDALIA        CLEAR     63  40  42 SE16      29.81S
WHITEMAN AFB   PTCLDY    64  34  32 SE14      29.77F
OSAGE BEACH    CLEAR     68  34  28 SE6       29.87R

$$
MOZ051-052-059>065-240300-
...EAST CENTRAL MISSOURI...

CITY           SKY/WX    TMP DP  RH WIND       PRES   REMARKS
ST LOUIS INTL  CLOUDY    61  32  33 E15       29.97F
SPIRIT OF STL  PTCLDY    60  34  37 E7        29.94F
ST CHARLES     PTCLDY    56  37  49 E13       29.95F

$$
MOZ072>076-082>087-097>100-106>115-240300-
...SOUTH CENTRAL AND SOUTHEAST MISSOURI...

CITY           SKY/WX    TMP DP  RH WIND       PRES   REMARKS
CAPE GIRARDEAU CLEAR     57  44  62 E6        29.98S
FARMINGTON     PTCLDY    54  39  58 E7        29.99S
POPLAR BLUFF   CLEAR     63  38  39 E6        29.95F
WEST PLAINS    CLEAR     64  36  35 SE9       29.92F

$$



USA.gov is the U.S. government's official web portal to all federal, state and local government web resources and services.